Simultaneous Nadir Overpasses (SNOs) Predictions

Prediction of SNOs between METOP-B and TERRA Satellite Orbit:

Table of predicted SNOs for the next 14.0 days since TLE Epoch: 2/15/2025
Index Date (METOP-B) Time (METOP-B) Lat,Lon (METOP-B) SZA (METOP-B ) Date (TERRA) Time (TERRA) Lat,Lon (TERRA) SZA (TERRA ) Distance(km) Time Diff (sec)
1 02/17/2025 08:32:55 79.05, 60.85 90.89 02/17/2025 08:33:12 79.05, 60.82 90.89 0.56 17
2 02/17/2025 09:23:29 -79.33,-129.89 88.82 02/17/2025 09:22:26 -79.33,-129.85 88.82 1.02 63
3 02/19/2025 22:12:44 -78.98, 35.40 90.11 02/19/2025 22:12:53 -78.99, 35.52 90.10 2.68 9
4 02/19/2025 23:03:13 79.38,-154.44 90.34 02/19/2025 23:02:02 79.38,-154.48 90.33 0.75 71
5 02/22/2025 11:52:26 79.10, 11.25 89.10 02/22/2025 11:52:27 79.10, 11.17 89.09 1.97 1
6 02/25/2025 00:41:41 78.73, 176.51 87.75 02/25/2025 00:42:53 78.72, 176.51 87.75 0.31 72
7 02/25/2025 01:32:13 -79.09, -13.82 91.86 02/25/2025 01:32:05 -79.09, -13.81 91.87 0.09 8
8 02/27/2025 14:21:24 -78.82, 152.11 93.11 02/27/2025 14:22:27 -78.81, 152.02 93.12 2.04 63



Historial Predications of SNOs between METOP-B and TERRA
